Location: St. Louis
(38.6270°N, 90.1994°W)
Time: 08:19:50
(UTC-06:00)

Transit 2A - Pass Details

Date: 02 December 2021
Orbit: 591 x 967 km, 66.7° (Epoch: 20 January)

Event Time Altitude Azimuth Distance (km) Brightness Sun altitude
Rises 02:10:15 0° 263° (W) 3,354 - -55.8°
Reaches altitude 10° 02:13:49 10° 287° (WNW) 2,503 - -55.2°
Maximum altitude 02:17:02 15° 321° (NW) 2,230 - -54.6°
Drops below altitude 10° 02:20:24 10° 354° (N) 2,626 - -53.9°
Sets 02:24:19 0° 17° (NNE) 3,623 - -53.2°
